Regional Weather Roundup
Issued by NWS

Home | Current Version | Previous Version | Text Only | Print | Product List | Glossary On
Versions: 1 2 3 4 5 6 7 8 9 10 11 12 13 14 15 16 17 18 19 20 21 22 23 24 25 26 27 28 29 30 31 32 33 34 35 36 37 38 39 40 41 42 43 44 45 46 47 48 49 50
000
ASUS43 KMKX 281231
RWRWI

WISCONSIN REGIONAL WEATHER ROUNDUP
NATIONAL WEATHER SERVICE MILWAUKEE/SULLIVAN WI
800 AM CDT THU MAY 28 2015

NOTE: "FAIR" INDICATES FEW OR NO CLOUDS BELOW 12,000 FEET WITH NO
SIGNIFICANT WEATHER AND/OR OBSTRUCTIONS TO VISIBILITY.

WIZ001-002-006>008-014>016-023>028-281400-
NORTHWEST WISCONSIN

CITY           SKY/WX    TMP DP  RH WIND       PRES   REMARKS
SUPERIOR ARPT  CLOUDY    42  39  90 E12G20    30.15R
ASHLAND        PTSUNNY   47  45  93 N7        30.13R
HAYWARD        SUNNY     54  52  93 N5        30.09F
SIREN          SUNNY     56  55  97 CALM      30.07S
CUMBERLAND     SUNNY     55  54  94 SE3       30.09R
RICE LAKE      SUNNY     58  54  86 SE5       30.10S
CHETEK         SUNNY     57  55  91 CALM      30.10R
LADYSMITH      SUNNY     55  55  97 E3        30.12F
EAU CLAIRE     SUNNY     59  55  87 CALM      30.09R
MENOMONIE      SUNNY     59  58  97 E3        30.09S
NEW RICHMOND   SUNNY     63  55  76 S5        30.07S
OSCEOLA        SUNNY     63  59  87 S6        30.09S
$$

WIZ003>005-009-010-017-018-281400-
NORTH CENTRAL WISCONSIN

CITY           SKY/WX    TMP DP  RH WIND       PRES   REMARKS
MANITOWISH WTR SUNNY     53  53 100 CALM      30.13S
ARBOR VITAE    SUNNY     57  55  95 CALM      30.13F
WOODRUFF       SUNNY     57  55  95 CALM      30.13F
RHINELANDER    SUNNY     53  50  89 CALM      30.15S
EAGLE RIVER    SUNNY     55  55 100 SE3       30.15R
LAND O LAKES   SUNNY     52  52 100 CALM      30.16R
PHILLIPS       SUNNY     57  55  94 CALM      30.12S
TOMAHAWK       SUNNY     53  52  97 CALM      30.15F
MEDFORD        SUNNY     56  55  97 CALM      30.13F
MERRILL        SUNNY     52  52 100 CALM      30.15S
$$

WIZ029-030-035-036-043>047-281400-
CENTRAL WISCONSIN

CITY           SKY/WX    TMP DP  RH WIND       PRES   REMARKS
WAUSAU         SUNNY     57  56  96 E5        30.13S
MOSINEE        SUNNY     55  55 100 CALM      30.15R
MARSHFIELD     SUNNY     59  56  89 CALM      30.13S
STEVENS POINT  SUNNY     55  55  99 CALM      30.15S
WAUPACA        SUNNY     59  58  96 CALM      30.15S
WAUTOMA        SUNNY     57  57 100 CALM      30.15S
WISC RAPIDS    SUNNY     59  56  89 CALM      30.14F
CAMP DOUGLAS   SUNNY     64  64 100 CALM      30.13S
$$

WIZ011>013-019>022-031-037>040-048>050-281400-
NORTHEAST WISCONSIN

CITY           SKY/WX    TMP DP  RH WIND       PRES   REMARKS
ANTIGO         SUNNY     55  55 100 CALM      30.16S
SHAWANO        SUNNY     58  57  96 CALM      30.16S
OCONTO         SUNNY     56  56 100 CALM      30.16R
STURGEON BAY   SUNNY     55  52  88 CALM      30.18S
GREEN BAY      SUNNY     61  57  87 CALM      30.15S
MANITOWOC      SUNNY     55  52  89 CALM      30.17R
APPLETON       SUNNY     61  57  88 CALM      30.16R
CLINTONVILLE   SUNNY     55  55 100 CALM      30.15S FOG
OSHKOSH        SUNNY     64  58  80 VRB5      30.15R
$$

WIZ032>034-041-042-053>061-281400-
SOUTHWEST WISCONSIN

CITY           SKY/WX    TMP DP  RH WIND       PRES   REMARKS
LA CROSSE      SUNNY     63  59  87 SE5       30.11S
SPARTA         SUNNY     56  54  94 CALM      30.13F
VIROQUA        SUNNY     62  58  86 S3        30.15R
BOSCOBEL       FOG       57  57 100 CALM      30.15R VSB<1/4
PRAIRIE DU CHI SUNNY     59  57  91 CALM      30.14S
PLATTEVILLE    SUNNY     62  58  87 SE7       30.17R
$$

WIZ056-057-062-063-064-067-068-281400-
SOUTH CENTRAL WISCONSIN

CITY           SKY/WX    TMP DP  RH WIND       PRES   REMARKS
REEDSBURG      SUNNY     63  59  87 CALM      30.14F
BARABOO/DELLS  SUNNY     65  56  73 W3        30.15S
LONE ROCK      SUNNY     61  58  90 CALM      30.16S
MINERAL POINT  SUNNY     61  57  88 SE6       30.17R
MADISON        MOSUNNY   63  58  83 S5        30.16R
MIDDLETON      SUNNY     67  56  68 SW5       30.17S
WATERTOWN      SUNNY    N/A N/A N/A CALM      30.17R
MONROE         SUNNY     63  55  77 SW8       30.17S
JANESVILLE     NOT AVBL
$$

WIZ051-052-058>065-066-070>072-281400-
SOUTHEAST WISCONSIN

CITY           SKY/WX    TMP DP  RH WIND       PRES   REMARKS
MILWAUKEE      MOSUNNY   64  57  78 SW3       30.17S
WAUKESHA       SUNNY     61  57  88 S3        30.19R
MILWAUKEE/TIMM SUNNY     63  55  77 SW7       30.18S
RACINE         SUNNY     64  56  75 W5        30.19S
BURLINGTON     SUNNY     56  56  99 SW3       30.18S
KENOSHA        SUNNY     61  57  87 SW3       30.19R
FOND DU LAC    SUNNY     65  58  78 SW6       30.16R
SHEBOYGAN      SUNNY     66  60  81 CALM      30.15S
WEST BEND      SUNNY     64  59  82 CALM      30.17S
JUNEAU         SUNNY     62  58  88 S3        30.18S
$$

LSZ147-162-281400-
LAKE SUPERIOR

STATION/POSITION TIME  TEMP    WIND        PRES    WAVE
                       AIR SEA DIR/SP/G            HT/PER
                 (UTC) (F)     (DEG/KT/KT) (MB)    (FT/S)
W MID LAKE BUOY  1150   38 37   60/ 16/ 17   N/A     3/ 4
DEVILS ISLAND    1200   41      70/ 15/ 16   N/A
PORT WING        1100   42      40/ 10/ 13   N/A
$$

LMZ867-665-643>646-281400-
LAKE MICHIGAN

STATION/POSITION TIME  TEMP    WIND        PRES    WAVE
                       AIR SEA DIR/SP/G            HT/PER
                 (UTC) (F)     (DEG/KT/KT) (MB)    (FT/S)
CHAMBERS ISLAND  1100   58     210/  2/  4   N/A
N MID LAKE BUOY  1150   40 36  230/  6/  6   N/A     1/ 4
NORTHPORT PIER   1100   50      CALM  /  4   N/A
SISTER BAY       1103   51        CALM       N/A
ALGOMA LAKESHORE 1108             CALM       N/A
KEWAUNEE LAKESHO 1100   49     190/  4/  5   N/A
SHEBOYGAN LAKESH 1200   60     180/  4/  4   N/A
PORT WASHINGTON  1100   67     260/  6/ 11   N/A
ATWATER BUOY     1100   57 47  300/  2/  2   N/A
MILWAUKEE LAKESH 1100   67     280/  8/  9   N/A
S MID LAKE BUOY  1150   44 38  180/  8/  8   N/A     0
KENOSHA   LAKESH 1200   57     190/  4/  6   N/A
$$

TC  - TEMPERATURE IN CELSIUS
VSB - VISIBILITY IN STATUTE MILES
WCI - WIND CHILL INDEX
HX  - HEAT INDEX



USA.gov is the U.S. government's official web portal to all federal, state and local government web resources and services.